Weather History for KLAA - March, 2013

Change the Weather History Date:

Friday, March 15, 2013

  Actual Average Record
Temperature  
Mean Temperature 59 °F 42 °F  
Max Temperature 85 °F 59 °F - ()
Min Temperature 33 °F 26 °F - ()
Degree Days  
Heating Degree Days 6 23  
Month to date heating degree days 325 378  
Since 1 July heating degree days 4424 4689  
Cooling Degree Days 0 0  
Month to date cooling degree days 0 0  
Year to date cooling degree days 0 0  
Growing Degree Days 9 (Base 50)    
Moisture  
Dew Point 20 °F    
Average Humidity 38    
Maximum Humidity 69    
Minimum Humidity 6    
Precipitation  
Precipitation 0.00 in 0.03 in - ()
Month to date precipitation 0.04 0.43  
Year to date precipitation 0.16 1.10  
Sea Level Pressure  
Sea Level Pressure 29.84 in    
Wind  
Wind Speed 7 mph (West)    
Max Wind Speed 20 mph    
Max Gust Speed 26 mph    
Visibility 10 miles    
Events      
T = Trace of Precipitation, MM = Missing Value Source: NWS Daily Summary

Daily Weather History Graph

Daily Weather History Graph

Search for Another Location

Airport or City:

Trip Planner

Search our weather history database for the weather conditions in past years. The results will help you decide how hot, cold, wet, or windy it might be!

Date:

Astronomy

Mar. 15, 2013 Rise Set
Actual Time 7:01 AM MDT 6:58 PM MDT
Civil Twilight 6:35 AM MDT 7:24 PM MDT
Nautical Twilight 6:04 AM MDT 7:55 PM MDT
Astronomical Twilight 5:33 AM MDT 8:26 PM MDT
Moon 8:57 AM MDT (3/15) 11:09 PM MDT (3/15)
Length of Visible Light 12h 49m
Length of Day
11h 56m
Waxing Crescent, 16% of the Moon is Illuminated
Mar 15
Waxing Crescent
Mar 19
First Quarter
Mar 27
Full
Apr 2
Last Quarter
Apr 10
New

Hourly Weather History & Observations

Time (MDT) Temp. Windchill Dew Point Humidity Pressure Visibility Wind Dir Wind Speed Gust Speed Precip Events Conditions
12:53 AM 42.1 °F - 23.0 °F 47% 30.01 in 10.0 mi Calm Calm - N/A   Clear
1:53 AM 42.1 °F 40.2 °F 24.1 °F 49% 29.98 in 10.0 mi NE 3.5 mph - N/A   Clear
2:53 AM 39.9 °F - 23.0 °F 51% 29.96 in 10.0 mi Calm Calm - N/A   Clear
3:53 AM 39.9 °F 37.8 °F 23.0 °F 51% 29.93 in 10.0 mi West 3.5 mph - N/A   Clear
4:53 AM 41.0 °F 35.8 °F 28.0 °F 60% 29.93 in 10.0 mi WSW 8.1 mph - N/A   Clear
5:53 AM 37.0 °F 31.6 °F 25.0 °F 62% 29.95 in 10.0 mi WSW 6.9 mph - N/A   Clear
6:53 AM 34.0 °F 29.8 °F 25.0 °F 70% 29.96 in 10.0 mi West 4.6 mph - N/A   Clear
7:53 AM 39.0 °F 34.8 °F 28.0 °F 65% 29.98 in 10.0 mi West 5.8 mph - N/A   Clear
8:53 AM 48.0 °F - 28.0 °F 46% 29.96 in 10.0 mi West 10.4 mph - N/A   Clear
9:53 AM 55.9 °F - 27.0 °F 33% 29.93 in 10.0 mi West 10.4 mph - N/A   Clear
10:53 AM 66.0 °F - 24.1 °F 20% 29.90 in 10.0 mi West 13.8 mph - N/A   Clear
11:53 AM 72.0 °F - 24.1 °F 17% 29.86 in 10.0 mi West 10.4 mph - N/A   Clear
12:53 PM 80.1 °F - 18.0 °F 10% 29.81 in 10.0 mi WSW 10.4 mph - N/A   Clear
1:53 PM 80.1 °F - 12.0 °F 8% 29.77 in 10.0 mi West 8.1 mph - N/A   Clear
2:53 PM 82.0 °F - 12.0 °F 7% 29.73 in 10.0 mi NW 12.7 mph 19.6 mph N/A   Clear
3:53 PM 84.0 °F - 10.0 °F 6% 29.70 in 10.0 mi WNW 11.5 mph 21.9 mph N/A   Clear
4:53 PM 81.0 °F - 10.0 °F 7% 29.70 in 10.0 mi West 12.7 mph - N/A   Clear
5:53 PM 75.0 °F - 14.0 °F 10% 29.70 in 10.0 mi WSW 6.9 mph - N/A   Clear
6:53 PM 71.1 °F - 16.0 °F 12% 29.71 in 10.0 mi Calm Calm - N/A   Clear
7:53 PM 62.1 °F - 17.1 °F 18% 29.72 in 10.0 mi East 5.8 mph - N/A   Clear
8:53 PM 53.1 °F - 18.0 °F 25% 29.73 in 10.0 mi SSW 4.6 mph - N/A   Clear
9:53 PM 55.0 °F - 19.0 °F 24% 29.73 in 10.0 mi NE 4.6 mph - N/A   Clear
10:53 PM 51.1 °F - 19.9 °F 29% 29.72 in 10.0 mi WNW 3.5 mph - N/A   Clear
11:53 PM 48.9 °F - 19.9 °F 32% 29.71 in 10.0 mi NW 3.5 mph - N/A   Clear